Content
SEND FEEDBACK

Daily
Averages
Monthly
Summary
United States of America

ST. LOUIS, MISSOURI


Home > North America > United States > Missouri
Elevation: 163 meters     Latitude: 38 45N     Longitude: 090 22W

WEATHER
 
SELECT A DAY
Number of Records: 196,619;   Date Range: 1/1/95 - 9/16/14
 
SHARE

PRINT THIS DATA

[ ← Previous Day ]
WEATHER ALMANAC - 22 APRIL, 2013
[ Next Day → ]
[ °F ]   °C
Weather ElementAverageHighLow
Temperature15.1 °C21.7 °C (1:54 pm)3.3 °C (5:54 am)
Dewpoint3.6 °C6.7 °C (11:54 pm)1.7 °C (1:54 am)
Humidity50.4 %89 % (5:54 am)30 % (11:54 am)
Barometer1019.6 hPa1024.4 hPa (1:54 am)1014.6 hPa (6:54 pm)
Wind Speed7.9 km/h20.4 km/h (2:54 pm)
Wind Gust31.5 km/h (3:54 pm)
Weather ElementAverage
Visibility16.1 km
Wind DirectionE (87 °)

Weather ElementTotal
Precipitation---
Heating Degree Days5.8 (Base 18.3)
Growing Degree Days2.5 (Base 10)
Averaged from 23 records on 22 April, 2013
WEATHER CONDITIONS BREAKOUT
WIND DIRECTION BREAKOUT
Weather ElementAverageHighLow
Temperature15.1 °C21.7 °C (1:54 pm)3.3 °C (5:54 am)
Dewpoint3.6 °C6.7 °C (11:54 pm)1.7 °C (1:54 am)
Humidity50.4 %89 % (5:54 am)30 % (11:54 am)
Barometer1019.6 hPa1024.4 hPa (1:54 am)1014.6 hPa (6:54 pm)
Wind Speed7.9 km/h20.4 km/h (2:54 pm)
Wind Gust31.5 km/h (3:54 pm)
Weather ElementAverage
Visibility16.1 km
Wind DirectionE (87 °)

Weather ElementTotal
Precipitation---
Heating Degree Days5.8 (Base 18.3)
Growing Degree Days2.5 (Base 10)
Averaged from 23 records on 22 April, 2013
WEATHER CONDITIONS BREAKOUT
WIND DIRECTION BREAKOUT
WEATHER BY HOUR - 22 APRIL, 2013
[ °F ]   °C
Local TimeTemperatureDewpointHumidityBarometerVisibilityWind DirectionWind SpeedGust SpeedPrecipitationEventsConditions
1:54 AM7.8 °C1.7 °C66 %1024.4 hPa16.1 kmCalmClear
2:54 AM5.6 °C2.2 °C79 %1024 hPa16.1 kmCalmClear
3:54 AM5.6 °C1.7 °C76 %1024 hPa16.1 kmCalmClear
4:54 AM4.4 °C1.7 °C83 %1023.7 hPa16.1 kmCalmClear
5:54 AM3.3 °C1.7 °C89 %1023.4 hPa16.1 kmCalmClear
6:54 AM3.3 °C1.7 °C89 %1023.4 hPa16.1 kmCalmClear
7:54 AM8.3 °C4.4 °C77 %1023.4 hPa16.1 kmCalmClear
8:54 AM12.8 °C2.2 °C49 %1023 hPa16.1 kmSE (130°)7.4 km/hScattered Clouds
9:54 AM15.6 °C2.2 °C41 %1022.4 hPa16.1 kmSouth (180°)13 km/hScattered Clouds
10:54 AM18.3 °C2.8 °C36 %1022 hPa16.1 kmSouth (170°)14.8 km/hMostly Cloudy
11:54 AM20 °C1.7 °C30 %1021.3 hPa16.1 kmSouth (180°)13 km/hClear
12:54 PM20 °C2.2 °C31 %1020 hPa16.1 kmSE (130°)13 km/hMostly Cloudy
1:54 PM21.7 °C5.6 °C35 %1018.6 hPa16.1 kmEast (100°)18.5 km/hClear
2:54 PM21.7 °C3.9 °C31 %1017.9 hPa16.1 kmESE (120°)20.4 km/h29.6 km/hMostly Cloudy
3:54 PM21.7 °C5 °C34 %1016.3 hPa16.1 kmESE (120°)14.8 km/h31.5 km/hMostly Cloudy
4:54 PM21.7 °C4.4 °C32 %1015.6 hPa16.1 kmSE (130°)13 km/hMostly Cloudy
5:54 PM21.7 °C5 °C34 %1015.2 hPa16.1 kmESE (120°)16.7 km/h29.6 km/hClear
6:54 PM21.1 °C3.3 °C31 %1014.6 hPa16.1 kmSSE (160°)13 km/h27.8 km/hMostly Cloudy
7:54 PM20 °C3.9 °C35 %1014.9 hPa16.1 kmSSE (150°)11.1 km/hOvercast
8:54 PM18.9 °C5.6 °C42 %1015.6 hPa16.1 kmSSE (150°)7.4 km/hMostly Cloudy
9:54 PM18.9 °C6.1 °C43 %1015.9 hPa16.1 kmSSE (160°)5.6 km/hMostly Cloudy
10:54 PM17.8 °C6.1 °C46 %1015.9 hPa16.1 kmCalmClear
11:54 PM17.2 °C6.7 °C50 %1015.9 hPa16.1 kmCalmOvercast
Hourly data recorded from KSUS, located 0 kilometers away from St. Louis, Missouri







STORIES FROM OUR PARTNERS